レモン-サイディング・スプリング彗星

C/2008 FK75 ( Lemmon-Siding Spring )

English version
Home page
Updated on February 8, 2021

---------------------------------------------------------------------

・ プロフィール

発見日 2008年5月31日、7月1日
発見光度 19.4等、18.9等
発見者 Mt. Lemmon Survey, Siding Spring Survey

・ 写真集

・ 軌道要素

Epoch 2010 Oct. 11.0 TT = JDT 2455480.5
T 2010 Sept. 29.25352 TT                                MPC
q   4.5108867            (2000.0)            P               Q
z  -0.0005738      Peri.   80.42003     +0.16377319     +0.82386184
 +/-0.0000001      Node   218.26853     -0.78064584     +0.44452149
e   1.0025885      Incl.   61.17608     +0.60313383     +0.35164231
From 3311 observations 2008 Mar. 31-2013 Nov. 6, mean residual 0".6.

・ 星図

・ 光度変化

        m1 = 5.5 + 5 logΔ + 10.0 log r

---------------------------------------------------------------------

軌道要素はM.P.E.C. 2014-H26に掲載されたものです。
星図はステラナビゲータ Ver.8 (アストロアーツ) で作成したものです。
光度グラフはComet for Windowsで作成したものです。

---------------------------------------------------------------------

Copyright(C) Seiichi Yoshida (comet@aerith.net). All rights reserved.